| time (UTC) | temp F | wind direction | speed knots | gust knots | rain 1hr in | rain 24hr in | rain mn in | humidity % | barometer mb |
| 20260506032717 | 51 | 342 | 3.5 | 8.7 | 0.00 | 0.00 | 0.00 | 79 | 1009.0 |
| 20260506031705 | 51 | 315 | 3.5 | 10.4 | 0.00 | 0.00 | 0.00 | 79 | 1009.0 |
| 20260506030706 | 51 | 335 | 4.3 | 10.4 | 0.00 | 0.00 | 0.00 | 77 | 1009.1 |
| 20260506030213 | 51 | 67 | 3.5 | 10.4 | 0.00 | 0.00 | 0.00 | 77 | 1009.1 |
| 20260506025714 | 51 | 332 | 2.6 | 9.6 | 0.00 | 0.00 | 0.00 | 76 | 1009.3 |
| 20260506025217 | 51 | 331 | 3.5 | 10.4 | 0.00 | 0.00 | 0.00 | 76 | 1009.3 |
| 20260506024740 | 51 | 355 | 4.3 | 10.4 | 0.00 | 0.00 | 0.00 | 76 | 1009.3 |
| 20260506024211 | 51 | 17 | 3.5 | 9.6 | 0.00 | 0.00 | 0.00 | 76 | 1009.3 |
| 20260506023712 | 51 | 37 | 3.5 | 9.6 | 0.00 | 0.00 | 0.00 | 76 | 1009.4 |
| 20260506023219 | 51 | 336 | 3.5 | 9.6 | 0.00 | 0.00 | 0.00 | 76 | 1009.3 |
| 20260506022713 | 50 | 333 | 3.5 | 9.6 | 0.00 | 0.00 | 0.00 | 77 | 1009.4 |
| 20260506022213 | 50 | 55 | 2.6 | 9.6 | 0.00 | 0.00 | 0.00 | 78 | 1009.4 |
| 20260506020716 | 50 | 36 | 2.6 | 8.7 | 0.00 | 0.00 | 0.00 | 79 | 1009.5 |
| 20260506020214 | 50 | 19 | 1.7 | 8.7 | 0.00 | 0.00 | 0.00 | 79 | 1009.5 |
| 20260506015219 | 50 | 47 | 1.7 | 7.8 | 0.00 | 0.00 | 0.00 | 79 | 1009.5 |
| 20260506014718 | 50 | 15 | 1.7 | 8.7 | 0.00 | 0.00 | 0.00 | 79 | 1009.5 |
| 20260506013708 | 50 | 350 | 2.6 | 8.7 | 0.00 | 0.00 | 0.00 | 79 | 1009.5 |
| 20260506013207 | 50 | 30 | 2.6 | 10.4 | 0.00 | 0.00 | 0.00 | 79 | 1009.5 |
| 20260506012715 | 50 | 51 | 2.6 | 10.4 | 0.00 | 0.00 | 0.00 | 79 | 1009.5 |
| 20260506011719 | 50 | 41 | 3.5 | 13.0 | 0.00 | 0.00 | 0.00 | 79 | 1009.6 |
| 20260506011209 | 50 | 18 | 3.5 | 13.0 | 0.00 | 0.00 | 0.00 | 78 | 1009.5 |
| 20260506010207 | 50 | 341 | 3.5 | 11.3 | 0.00 | 0.00 | 0.00 | 78 | 1009.5 |
| 20260506005707 | 50 | 11 | 3.5 | 11.3 | 0.00 | 0.00 | 0.00 | 78 | 1009.6 |
| 20260506005211 | 50 | 18 | 2.6 | 9.6 | 0.00 | 0.00 | 0.00 | 78 | 1009.6 |
| 20260506004719 | 50 | 26 | 2.6 | 9.6 | 0.00 | 0.00 | 0.00 | 78 | 1009.7 |
| 20260506004209 | 50 | 11 | 2.6 | 7.0 | 0.00 | 0.00 | 0.00 | 78 | 1009.8 |
| 20260506003717 | 50 | 70 | 2.6 | 7.0 | 0.00 | 0.00 | 0.00 | 78 | 1009.7 |
| 20260506002717 | 50 | 0 | 2.6 | 7.8 | 0.00 | 0.00 | 0.00 | 77 | 1009.9 |
| 20260506002210 | 49 | 54 | 3.5 | 7.8 | 0.00 | 0.00 | 0.00 | 77 | 1009.9 |
| 20260506001715 | 49 | 25 | 2.6 | 7.8 | 0.00 | 0.00 | 0.00 | 77 | 1009.9 |
| 20260506001208 | 49 | 5 | 2.6 | 7.8 | 0.00 | 0.00 | 0.00 | 78 | 1010.0 |
| 20260506000710 | 49 | 53 | 2.6 | 7.8 | 0.00 | 0.00 | 0.00 | 78 | 1010.1 |
| 20260505235717 | 49 | 9 | 2.6 | 9.6 | 0.00 | 0.00 | 0.00 | 77 | 1010.1 |
| 20260505235211 | 49 | 338 | 2.6 | 9.6 | 0.00 | 0.00 | 0.00 | 77 | 1010.2 |
| 20260505234216 | 49 | 41 | 3.5 | 8.7 | 0.00 | 0.00 | 0.00 | 76 | 1010.2 |
| 20260505233718 | 49 | 0 | 2.6 | 7.8 | 0.00 | 0.00 | 0.00 | 76 | 1010.2 |
| 20260505233211 | 49 | 341 | 2.6 | 7.8 | 0.00 | 0.00 | 0.00 | 76 | 1010.3 |
| 20260505232714 | 49 | 19 | 3.5 | 7.8 | 0.00 | 0.00 | 0.00 | 76 | 1010.4 |
| 20260505232218 | 49 | 40 | 2.6 | 7.8 | 0.00 | 0.00 | 0.00 | 75 | 1010.4 |
| 20260505231711 | 49 | 32 | 2.6 | 7.8 | 0.00 | 0.00 | 0.00 | 75 | 1010.4 |
| 20260505231215 | 49 | 9 | 2.6 | 7.8 | 0.00 | 0.00 | 0.00 | 75 | 1010.4 |
| 20260505230212 | 49 | 5 | 3.5 | 9.6 | 0.00 | 0.00 | 0.00 | 75 | 1010.5 |
| 20260505225713 | 50 | 100 | 3.5 | 9.6 | 0.00 | 0.00 | 0.00 | 75 | 1010.5 |
| 20260505225205 | 50 | 325 | 3.5 | 9.6 | 0.00 | 0.00 | 0.00 | 75 | 1010.5 |
| 20260505224211 | 50 | 344 | 2.6 | 10.4 | 0.00 | 0.00 | 0.00 | 74 | 1010.4 |
| 20260505223712 | 50 | 38 | 2.6 | 10.4 | 0.00 | 0.00 | 0.00 | 74 | 1010.4 |
| 20260505223212 | 50 | 321 | 3.5 | 10.4 | 0.00 | 0.00 | 0.00 | 74 | 1010.5 |
| 20260505222707 | 50 | 0 | 3.5 | 10.4 | 0.00 | 0.00 | 0.00 | 74 | 1010.5 |
| 20260505221717 | 50 | 36 | 3.5 | 10.4 | 0.00 | 0.00 | 0.00 | 73 | 1010.6 |
| 20260505221219 | 50 | 336 | 3.5 | 8.7 | 0.00 | 0.00 | 0.00 | 73 | 1010.6 |
| 20260505220248 | 50 | 5 | 2.6 | 10.4 | 0.00 | 0.00 | 0.00 | 73 | 1010.7 |
| 20260505215712 | 50 | 355 | 2.6 | 10.4 | 0.00 | 0.00 | 0.00 | 73 | 1010.7 |
| 20260505214708 | 50 | 44 | 3.5 | 8.7 | 0.00 | 0.00 | 0.00 | 73 | 1010.8 |
| 20260505214207 | 50 | 51 | 2.6 | 8.7 | 0.00 | 0.00 | 0.00 | 73 | 1010.8 |
| 20260505213705 | 50 | 52 | 2.6 | 9.6 | 0.00 | 0.00 | 0.00 | 73 | 1010.9 |
| 20260505213215 | 50 | 43 | 3.5 | 9.6 | 0.00 | 0.00 | 0.00 | 73 | 1010.8 |
| 20260505212712 | 51 | 33 | 3.5 | 7.8 | 0.00 | 0.00 | 0.00 | 73 | 1010.8 |
| 20260505212207 | 51 | 345 | 2.6 | 7.8 | 0.00 | 0.00 | 0.00 | 73 | 1010.9 |
| 20260505211709 | 51 | 337 | 2.6 | 7.8 | 0.00 | 0.00 | 0.00 | 73 | 1010.8 |
| 20260505211213 | 51 | 0 | 2.6 | 7.8 | 0.00 | 0.00 | 0.00 | 73 | 1010.9 |
| 20260505210716 | 51 | 57 | 3.5 | 7.8 | 0.00 | 0.00 | 0.00 | 73 | 1010.9 |
| 20260505210214 | 51 | 79 | 2.6 | 7.8 | 0.00 | 0.00 | 0.00 | 73 | 1011.0 |
| 20260505205718 | 51 | 38 | 2.6 | 9.6 | 0.00 | 0.00 | 0.00 | 73 | 1011.0 |
| 20260505205216 | 51 | 29 | 2.6 | 9.6 | 0.00 | 0.00 | 0.00 | 73 | 1011.0 |
| 20260505204712 | 51 | 62 | 3.5 | 8.7 | 0.00 | 0.00 | 0.00 | 73 | 1011.0 |
| 20260505204208 | 51 | 48 | 2.6 | 10.4 | 0.00 | 0.00 | 0.00 | 73 | 1011.0 |
| 20260505203706 | 51 | 333 | 3.5 | 10.4 | 0.00 | 0.00 | 0.00 | 73 | 1010.9 |
| 20260505203210 | 51 | 31 | 3.5 | 10.4 | 0.00 | 0.00 | 0.00 | 73 | 1011.0 |
| 20260505202707 | 52 | 49 | 3.5 | 9.6 | 0.00 | 0.00 | 0.00 | 72 | 1011.0 |
| 20260505202219 | 52 | 57 | 4.3 | 9.6 | 0.00 | 0.00 | 0.00 | 72 | 1010.9 |
| 20260505201717 | 52 | 22 | 4.3 | 8.7 | 0.00 | 0.00 | 0.00 | 72 | 1010.9 |
| 20260505201214 | 52 | 66 | 3.5 | 8.7 | 0.00 | 0.00 | 0.00 | 72 | 1010.9 |
| 20260505200708 | 52 | 31 | 3.5 | 8.7 | 0.00 | 0.00 | 0.00 | 72 | 1010.9 |
| 20260505200212 | 52 | 55 | 3.5 | 9.6 | 0.00 | 0.00 | 0.00 | 72 | 1010.8 |
| 20260505195716 | 52 | 20 | 3.5 | 10.4 | 0.00 | 0.00 | 0.00 | 73 | 1010.8 |
| 20260505195216 | 52 | 38 | 4.3 | 12.2 | 0.00 | 0.00 | 0.00 | 73 | 1010.7 |
| 20260505194706 | 52 | 42 | 5.2 | 12.2 | 0.00 | 0.00 | 0.00 | 73 | 1010.7 |
| 20260505194207 | 53 | 53 | 5.2 | 10.4 | 0.00 | 0.00 | 0.00 | 73 | 1010.6 |
| 20260505193707 | 53 | 55 | 3.5 | 13.0 | 0.00 | 0.00 | 0.00 | 74 | 1010.5 |
| 20260505193205 | 53 | 0 | 3.5 | 13.0 | 0.00 | 0.00 | 0.00 | 74 | 1010.4 |
| 20260505192216 | 53 | 15 | 3.5 | 10.4 | 0.00 | 0.00 | 0.00 | 73 | 1010.3 |
| 20260505191709 | 53 | 334 | 3.5 | 12.2 | 0.00 | 0.00 | 0.00 | 73 | 1010.3 |
| 20260505191216 | 53 | 27 | 4.3 | 12.2 | 0.00 | 0.00 | 0.00 | 73 | 1010.3 |
| 20260505190708 | 53 | 28 | 4.3 | 12.2 | 0.00 | 0.00 | 0.00 | 73 | 1010.2 |
| 20260505190212 | 53 | 339 | 5.2 | 13.9 | 0.00 | 0.00 | 0.00 | 74 | 1010.2 |
| 20260505185714 | 54 | 21 | 4.3 | 13.9 | 0.00 | 0.00 | 0.00 | 74 | 1010.1 |
| 20260505185219 | 54 | 13 | 4.3 | 13.9 | 0.00 | 0.00 | 0.00 | 74 | 1010.1 |
| 20260505184714 | 54 | 70 | 5.2 | 13.0 | 0.00 | 0.00 | 0.00 | 74 | 1010.1 |
| 20260505183709 | 54 | 23 | 5.2 | 14.8 | 0.00 | 0.00 | 0.00 | 73 | 1009.9 |
| 20260505183206 | 54 | 347 | 6.1 | 14.8 | 0.00 | 0.00 | 0.00 | 73 | 1010.0 |
| 20260505182718 | 54 | 5 | 7.0 | 14.8 | 0.00 | 0.00 | 0.00 | 73 | 1010.0 |
| 20260505181715 | 54 | 327 | 6.1 | 13.0 | 0.00 | 0.00 | 0.00 | 73 | 1009.9 |
| 20260505181209 | 54 | 36 | 6.1 | 13.0 | 0.00 | 0.00 | 0.00 | 73 | 1009.9 |
| 20260505180212 | 55 | 355 | 7.0 | 14.8 | 0.00 | 0.00 | 0.00 | 73 | 1009.9 |
| 20260505175716 | 55 | 318 | 6.1 | 14.8 | 0.00 | 0.00 | 0.00 | 72 | 1010.0 |
| 20260505174710 | 55 | 333 | 7.0 | 14.8 | 0.00 | 0.00 | 0.00 | 72 | 1010.0 |
| 20260505174208 | 55 | 338 | 7.8 | 14.8 | 0.00 | 0.00 | 0.00 | 72 | 1010.0 |
| 20260505173718 | 55 | 331 | 7.0 | 13.9 | 0.00 | 0.00 | 0.00 | 71 | 1010.0 |
| 20260505172706 | 55 | 9 | 7.0 | 13.9 | 0.00 | 0.00 | 0.00 | 71 | 1010.0 |
| 20260505172211 | 55 | 32 | 6.1 | 13.0 | 0.00 | 0.00 | 0.00 | 72 | 1010.0 |
| 20260505171706 | 55 | 328 | 6.1 | 15.6 | 0.00 | 0.00 | 0.00 | 72 | 1010.1 |
| 20260505171237 | 55 | 5 | 7.0 | 15.6 | 0.00 | 0.00 | 0.00 | 73 | 1010.0 |
| 20260505170206 | 55 | 331 | 6.1 | 15.6 | 0.00 | 0.00 | 0.00 | 72 | 1010.2 |
| 20260505165711 | 55 | 348 | 6.1 | 15.6 | 0.00 | 0.00 | 0.00 | 72 | 1010.1 |
| 20260505165217 | 55 | 20 | 7.8 | 16.5 | 0.00 | 0.00 | 0.00 | 72 | 1010.2 |
| 20260505164720 | 55 | 22 | 7.0 | 16.5 | 0.00 | 0.00 | 0.00 | 72 | 1010.2 |
| 20260505164214 | 55 | 57 | 7.8 | 13.9 | 0.00 | 0.00 | 0.00 | 71 | 1010.2 |
| 20260505163717 | 55 | 15 | 7.0 | 15.6 | 0.00 | 0.00 | 0.00 | 71 | 1010.2 |
| 20260505163210 | 55 | 9 | 6.1 | 15.6 | 0.00 | 0.00 | 0.00 | 71 | 1010.2 |
| 20260505162708 | 55 | 324 | 6.1 | 15.6 | 0.00 | 0.00 | 0.00 | 71 | 1010.1 |
| 20260505162212 | 56 | 36 | 6.1 | 14.8 | 0.00 | 0.00 | 0.00 | 70 | 1010.2 |
| 20260505161705 | 56 | 17 | 7.0 | 14.8 | 0.00 | 0.00 | 0.00 | 70 | 1010.2 |
| 20260505161214 | 56 | 342 | 6.1 | 14.8 | 0.00 | 0.00 | 0.00 | 69 | 1010.2 |
| 20260505160245 | 56 | 344 | 7.8 | 14.8 | 0.00 | 0.00 | 0.00 | 70 | 1010.2 |
| 20260505152716 | 57 | 0 | 7.0 | 14.8 | 0.00 | 0.00 | 0.00 | 69 | 1010.2 |
| 20260505151236 | 57 | 355 | 7.0 | 17.4 | 0.00 | 0.00 | 0.00 | 69 | 1010.2 |
| 20260505150711 | 57 | 40 | 7.8 | 17.4 | 0.00 | 0.00 | 0.00 | 68 | 1010.3 |
| 20260505150213 | 57 | 28 | 7.8 | 17.4 | 0.00 | 0.00 | 0.00 | 68 | 1010.2 |
| 20260505140220 | 57 | 355 | 7.8 | 13.9 | 0.00 | 0.00 | 0.00 | 65 | 1010.3 |
| 20260505130218 | 58 | 344 | 7.0 | 18.2 | 0.00 | 0.00 | 0.00 | 64 | 1010.6 |
| 20260505124707 | 58 | 32 | 7.8 | 13.9 | 0.00 | 0.00 | 0.00 | 66 | 1010.6 |
| 20260505124206 | 58 | 338 | 7.8 | 14.8 | 0.00 | 0.00 | 0.00 | 67 | 1010.6 |
| 20260505123719 | 58 | 339 | 7.8 | 15.6 | 0.00 | 0.00 | 0.00 | 67 | 1010.7 |
| 20260505122708 | 59 | 5 | 6.1 | 16.5 | 0.00 | 0.00 | 0.00 | 66 | 1010.6 |
| 20260505122214 | 58 | 5 | 7.8 | 16.5 | 0.00 | 0.00 | 0.00 | 66 | 1010.7 |
| 20260505121744 | 58 | 335 | 7.0 | 15.6 | 0.00 | 0.00 | 0.00 | 65 | 1010.6 |
| 20260505120712 | 58 | 318 | 7.8 | 15.6 | 0.00 | 0.00 | 0.00 | 67 | 1010.6 |
| 20260505115715 | 58 | 345 | 6.1 | 13.0 | 0.00 | 0.00 | 0.00 | 64 | 1010.6 |
| 20260505115218 | 59 | 9 | 6.1 | 14.8 | 0.00 | 0.00 | 0.00 | 66 | 1010.7 |
| 20260505114713 | 58 | 326 | 6.1 | 14.8 | 0.00 | 0.00 | 0.00 | 66 | 1010.7 |
| 20260505114208 | 58 | 331 | 6.1 | 14.8 | 0.00 | 0.00 | 0.00 | 66 | 1010.8 |
| 20260505113713 | 58 | 307 | 7.0 | 13.9 | 0.00 | 0.00 | 0.00 | 66 | 1010.8 |
| 20260505113215 | 58 | 317 | 7.0 | 13.9 | 0.00 | 0.00 | 0.00 | 66 | 1010.9 |
| 20260505112739 | 58 | 279 | 6.1 | 13.9 | 0.00 | 0.00 | 0.00 | 65 | 1010.9 |
| 20260505112217 | 59 | 262 | 7.0 | 13.9 | 0.00 | 0.00 | 0.00 | 67 | 1010.9 |
| 20260505111710 | 58 | 348 | 7.0 | 13.9 | 0.00 | 0.00 | 0.00 | 65 | 1011.0 |
| 20260505111206 | 59 | 344 | 6.1 | 13.9 | 0.00 | 0.00 | 0.00 | 65 | 1011.0 |
| 20260505110711 | 58 | 288 | 5.2 | 13.9 | 0.00 | 0.00 | 0.00 | 67 | 1011.0 |
| 20260505110206 | 58 | 327 | 6.1 | 13.0 | 0.00 | 0.00 | 0.00 | 66 | 1011.0 |
| 20260505102211 | 59 | 5 | 4.3 | 11.3 | 0.00 | 0.00 | 0.00 | 64 | 1011.3 |
| 20260505101714 | 60 | 86 | 4.3 | 11.3 | 0.00 | 0.00 | 0.00 | 60 | 1011.3 |
| 20260505101208 | 60 | 38 | 5.2 | 11.3 | 0.00 | 0.00 | 0.00 | 56 | 1011.4 |
| 20260505100708 | 59 | 0 | 5.2 | 13.0 | 0.00 | 0.00 | 0.00 | 56 | 1011.4 |
| 20260505100215 | 59 | 58 | 5.2 | 13.0 | 0.00 | 0.00 | 0.00 | 58 | 1011.5 |
| 20260505095717 | 59 | 46 | 5.2 | 10.4 | 0.00 | 0.00 | 0.00 | 57 | 1011.5 |
| 20260505095206 | 59 | 48 | 4.3 | 10.4 | 0.00 | 0.00 | 0.00 | 59 | 1011.5 |
| 20260505094710 | 59 | 355 | 4.3 | 10.4 | 0.00 | 0.00 | 0.00 | 58 | 1011.5 |
| 20260505094218 | 58 | 46 | 5.2 | 10.4 | 0.00 | 0.00 | 0.00 | 58 | 1011.5 |
| 20260505093717 | 58 | 44 | 4.3 | 10.4 | 0.00 | 0.00 | 0.00 | 58 | 1011.5 |
| 20260505093218 | 58 | 56 | 4.3 | 12.2 | 0.00 | 0.00 | 0.00 | 60 | 1011.5 |
| 20260505092712 | 58 | 355 | 4.3 | 12.2 | 0.00 | 0.00 | 0.00 | 61 | 1011.5 |
| 20260505092216 | 58 | 42 | 5.2 | 12.2 | 0.00 | 0.00 | 0.00 | 62 | 1011.6 |
| 20260505091719 | 58 | 50 | 6.1 | 11.3 | 0.00 | 0.00 | 0.00 | 61 | 1011.7 |
| 20260505091220 | 58 | 86 | 5.2 | 10.4 | 0.00 | 0.00 | 0.00 | 61 | 1011.6 |
| 20260505090713 | 58 | 0 | 5.2 | 10.4 | 0.00 | 0.00 | 0.00 | 62 | 1011.5 |
| 20260505085707 | 58 | 41 | 4.3 | 11.3 | 0.00 | 0.00 | 0.00 | 62 | 1011.7 |
| 20260505084710 | 57 | 48 | 5.2 | 12.2 | 0.00 | 0.00 | 0.00 | 62 | 1011.6 |
| 20260505084216 | 57 | 43 | 5.2 | 12.2 | 0.00 | 0.00 | 0.00 | 61 | 1011.7 |
| 20260505083716 | 57 | 42 | 5.2 | 12.2 | 0.00 | 0.00 | 0.00 | 62 | 1011.6 |
| 20260505082713 | 56 | 87 | 5.2 | 11.3 | 0.00 | 0.00 | 0.00 | 64 | 1011.6 |
| 20260505082210 | 56 | 42 | 6.1 | 12.2 | 0.00 | 0.00 | 0.00 | 65 | 1011.6 |
| 20260505081711 | 56 | 46 | 5.2 | 12.2 | 0.00 | 0.00 | 0.00 | 66 | 1011.6 |
| 20260505081212 | 55 | 28 | 5.2 | 13.9 | 0.00 | 0.00 | 0.00 | 67 | 1011.6 |
| 20260505080712 | 55 | 77 | 6.1 | 13.9 | 0.00 | 0.00 | 0.00 | 69 | 1011.5 |
| 20260505080211 | 55 | 78 | 6.1 | 13.9 | 0.00 | 0.00 | 0.00 | 68 | 1011.5 |
| 20260505075720 | 55 | 74 | 6.1 | 12.2 | 0.00 | 0.00 | 0.00 | 68 | 1011.5 |
| 20260505075207 | 55 | 105 | 7.0 | 12.2 | 0.00 | 0.00 | 0.00 | 70 | 1011.5 |
| 20260505074707 | 55 | 58 | 6.1 | 12.2 | 0.00 | 0.00 | 0.00 | 69 | 1011.6 |
| 20260505074214 | 55 | 66 | 6.1 | 12.2 | 0.00 | 0.00 | 0.00 | 70 | 1011.7 |
| 20260505073212 | 54 | 71 | 5.2 | 13.0 | 0.00 | 0.00 | 0.00 | 72 | 1011.7 |
| 20260505072713 | 55 | 327 | 4.3 | 13.0 | 0.00 | 0.00 | 0.00 | 71 | 1011.7 |
| 20260505072212 | 54 | 351 | 3.5 | 13.0 | 0.00 | 0.00 | 0.00 | 73 | 1011.8 |
| 20260505071720 | 54 | 59 | 4.3 | 13.0 | 0.00 | 0.00 | 0.00 | 73 | 1011.8 |
| 20260505071218 | 54 | 47 | 3.5 | 12.2 | 0.00 | 0.00 | 0.00 | 74 | 1011.8 |
| 20260505070705 | 54 | 337 | 4.3 | 12.2 | 0.00 | 0.00 | 0.00 | 75 | 1012.0 |
| 20260505070211 | 54 | 30 | 5.2 | 12.2 | 0.00 | 0.00 | 0.00 | 75 | 1012.0 |
| 20260505065708 | 53 | 43 | 4.3 | 10.4 | 0.00 | 0.00 | 0.00 | 76 | 1012.0 |
| 20260505065209 | 53 | 26 | 3.5 | 8.7 | 0.00 | 0.00 | 0.00 | 78 | 1012.0 |
| 20260505064714 | 53 | 65 | 3.5 | 8.7 | 0.00 | 0.00 | 0.00 | 79 | 1012.1 |
| 20260505064214 | 52 | 50 | 3.5 | 8.7 | 0.00 | 0.00 | 0.00 | 81 | 1012.1 |
| 20260505063713 | 51 | 70 | 2.6 | 10.4 | 0.00 | 0.00 | 0.00 | 81 | 1012.1 |
| 20260505063207 | 51 | 57 | 3.5 | 10.4 | 0.00 | 0.00 | 0.00 | 82 | 1012.2 |
| 20260505062707 | 51 | 29 | 3.5 | 10.4 | 0.00 | 0.00 | 0.00 | 82 | 1012.3 |
| 20260505062218 | 51 | 95 | 3.5 | 8.7 | 0.00 | 0.00 | 0.00 | 83 | 1012.3 |
| 20260505061708 | 51 | 9 | 4.3 | 10.4 | 0.00 | 0.00 | 0.00 | 83 | 1012.2 |
| 20260505061221 | 51 | 69 | 3.5 | 10.4 | 0.00 | 0.00 | 0.00 | 83 | 1012.2 |
| 20260505055712 | 51 | 79 | 2.6 | 8.7 | 0.00 | 0.00 | 0.00 | 84 | 1012.3 |
| 20260505055229 | 51 | 52 | 2.6 | 9.6 | 0.00 | 0.00 | 0.00 | 84 | 1012.3 |
| 20260505054734 | 51 | 315 | 4.3 | 10.4 | 0.00 | 0.00 | 0.00 | 84 | 1012.3 |
| 20260505054209 | 51 | 28 | 4.3 | 10.4 | 0.00 | 0.00 | 0.00 | 84 | 1012.3 |
| 20260505053737 | 51 | 63 | 3.5 | 10.4 | 0.00 | 0.00 | 0.00 | 84 | 1012.3 |
| 20260505053214 | 51 | 355 | 3.5 | 10.4 | 0.00 | 0.00 | 0.00 | 84 | 1012.3 |
| 20260505052707 | 51 | 46 | 3.5 | 10.4 | 0.00 | 0.00 | 0.00 | 84 | 1012.2 |
| 20260505052210 | 51 | 5 | 2.6 | 8.7 | 0.00 | 0.00 | 0.00 | 84 | 1012.1 |
| 20260505051714 | 51 | 327 | 2.6 | 8.7 | 0.00 | 0.00 | 0.00 | 84 | 1012.2 |
| 20260505051216 | 51 | 349 | 2.6 | 7.8 | 0.00 | 0.00 | 0.00 | 84 | 1012.0 |
| 20260505050209 | 51 | 331 | 2.6 | 7.8 | 0.00 | 0.00 | 0.00 | 85 | 1012.1 |
| 20260505041711 | 50 | 355 | 3.5 | 9.6 | 0.00 | 0.00 | 0.00 | 85 | 1012.0 |
| 20260505041215 | 51 | 44 | 3.5 | 9.6 | 0.00 | 0.00 | 0.00 | 85 | 1012.0 |
| 20260505040213 | 51 | 103 | 4.3 | 11.3 | 0.00 | 0.00 | 0.00 | 85 | 1012.0 |
| 20260505035711 | 51 | 44 | 4.3 | 11.3 | 0.00 | 0.00 | 0.00 | 85 | 1012.0 |
| 20260505035214 | 51 | 99 | 3.5 | 7.8 | 0.00 | 0.00 | 0.00 | 85 | 1011.9 |
| 20260505034715 | 51 | 26 | 4.3 | 9.6 | 0.00 | 0.00 | 0.00 | 85 | 1012.0 |
| 20260505034210 | 51 | 61 | 3.5 | 9.6 | 0.00 | 0.00 | 0.00 | 84 | 1012.1 |